Missoula, MT

4:39 PM MST on December 18, 2017 (GMT -0700)
Missoula International

Weather History for KMSO - July, 2013

Change the Weather History Date:

Monday, July 29, 2013

  Actual Average Record
Temperature  
Mean Temperature 69 °F 70 °F  
Max Temperature 86 °F 89 °F 101 °F (2007)
Min Temperature 52 °F 53 °F 37 °F (1894)
Degree Days  
Heating Degree Days 0 1  
Month to date heating degree days 0 40  
Since 1 June heating degree days 141 200  
Since 1 July heating degree days 0 40  
Cooling Degree Days 4 6  
Month to date cooling degree days 239 140  
Year to date cooling degree days 286 183  
Since 1 June cooling degree days 282 177  
Growing Degree Days 19 (Base 50)    
Moisture  
Dew Point 36 °F    
Average Humidity 30    
Maximum Humidity 50    
Minimum Humidity 10    
Precipitation  
Precipitation 0.00 in 0.03 in 0.44 in (1975)
Month to date precipitation 0.09 0.93  
Year to date precipitation 5.90 8.78  
Snow  
Snow 0.00 in - - ()
Month to date snowfall 0.0  
Year to date snowfall 27.4  
Since 1 July snowfall 0.0  
Snow Depth 0.00 in    
Sea Level Pressure  
Sea Level Pressure 29.89 in    
Wind  
Wind Speed 7 mph (ENE)    
Max Wind Speed 21 mph    
Max Gust Speed 24 mph    
Visibility 10 miles    
Events      
T = Trace of Precipitation, MM = Missing Value Source: NWS Daily Summary

Daily Weather History Graph

Daily Weather History Graph

Search for Another Location

Airport or City:

Trip Planner

Search our weather history database for the weather conditions in past years. The results will help you decide how hot, cold, wet, or windy it might be!

Date:

Astronomy

Jul. 29, 2013 Rise Set
Actual Time 6:12 AM MDT 9:12 PM MDT
Civil Twilight 5:36 AM MDT 9:47 PM MDT
Nautical Twilight 4:50 AM MDT 10:33 PM MDT
Astronomical Twilight 3:54 AM MDT 11:28 PM MDT
Moon 12:05 AM MDT (7/29) 2:32 PM MDT (7/29)
Length of Visible Light 16h 10m
Length of Day
14h 59m
Waning Gibbous, 50% of the Moon is Illuminated
Jul 29
Waning Gibbous
Aug 6
New
Aug 14
First Quarter
Aug 20
Full
Aug 28
Last Quarter

Hourly Weather History & Observations

Time (MDT) Temp. Dew Point Humidity Pressure Visibility Wind Dir Wind Speed Gust Speed Precip Events Conditions
12:53 AM 63.0 °F 30.0 °F 29% 29.83 in 8.0 mi NNE 3.5 mph - N/A   Clear
1:53 AM 57.0 °F 33.1 °F 40% 29.85 in 9.0 mi SSE 4.6 mph - N/A   Clear
2:53 AM 60.1 °F 33.1 °F 36% 29.85 in 9.0 mi Calm Calm - N/A   Clear
3:53 AM 57.0 °F 33.1 °F 40% 29.87 in 9.0 mi Calm Calm - N/A   Clear
4:53 AM 54.0 °F 35.1 °F 49% 29.90 in 9.0 mi Calm Calm - N/A   Clear
5:53 AM 54.0 °F 36.0 °F 51% 29.92 in 10.0 mi Calm Calm - N/A   Clear
6:53 AM 62.1 °F 43.0 °F 50% 29.92 in 10.0 mi SE 11.5 mph - N/A   Clear
7:53 AM 64.0 °F 43.0 °F 46% 29.93 in 10.0 mi SE 12.7 mph - N/A   Clear
8:53 AM 66.9 °F 43.0 °F 42% 29.94 in 10.0 mi SE 13.8 mph - N/A   Clear
9:53 AM 70.0 °F 44.1 °F 39% 29.94 in 10.0 mi SE 17.3 mph - N/A   Clear
10:53 AM 72.0 °F 44.1 °F 37% 29.93 in 10.0 mi ESE 16.1 mph - N/A   Clear
11:53 AM 75.0 °F 43.0 °F 32% 29.92 in 10.0 mi SE 9.2 mph - N/A   Clear
1:53 PM 80.1 °F 39.0 °F 23% 29.88 in 10.0 mi West 4.6 mph - N/A   Clear
2:53 PM 82.9 °F 37.9 °F 20% 29.86 in 10.0 mi Calm Calm - N/A   Partly Cloudy
3:53 PM 84.9 °F 37.9 °F 19% 29.86 in 10.0 mi Variable 4.6 mph - N/A   Clear
4:53 PM 84.9 °F 37.0 °F 18% 29.85 in 10.0 mi NNW 5.8 mph - N/A   Clear
5:53 PM 84.0 °F 36.0 °F 18% 29.84 in 10.0 mi Variable 4.6 mph - N/A   Clear
6:53 PM 86.0 °F 26.1 °F 11% 29.82 in 10.0 mi NW 12.7 mph 19.6 mph N/A   Clear
7:53 PM 84.0 °F 21.0 °F 10% 29.84 in 10.0 mi West 11.5 mph - N/A   Clear
8:53 PM 80.1 °F 24.1 °F 13% 29.86 in 10.0 mi NW 12.7 mph - N/A   Clear
9:53 PM 73.0 °F 23.0 °F 15% 29.89 in 10.0 mi NNW 4.6 mph - N/A   Clear
10:53 PM 69.1 °F 37.0 °F 31% 29.92 in 10.0 mi NW 11.5 mph - N/A   Clear
11:53 PM 68.0 °F 34.0 °F 28% 29.92 in 10.0 mi Calm Calm - N/A   Clear